GW3615 Weather Reports


time (UTC)temp
C
wind
direction
speed
KPH
gust
KPH
rain 1hr
cm
rain 24hr
cm
rain mn
cm
humidity
%
barometer
mb
20260509054727 35 195 4.8 16.1 0.00 0.00 0.00 53 1009.8
20260509054227 34 96 4.8 12.9 0.00 0.00 0.00 54 1009.8
20260509053728 35 69 4.8 9.7 0.00 0.00 0.00 53 1009.8
20260509053228 34 67 1.6 4.8 0.00 0.00 0.00 54 1010.2
20260509052727 35 113 4.8 12.9 0.00 0.00 0.00 53 1010.2
20260509052228 35 115 3.2 9.7 0.00 0.00 0.00 52 1010.2
20260509051727 34 114 1.6 3.2 0.00 0.00 0.00 55 1009.8
20260509051227 35 71 1.6 8.0 0.00 0.00 0.00 54 1010.2
20260509050728 34 182 1.6 8.0 0.00 0.00 0.00 55 1010.2
20260509050228 34 63 0.0 4.8 0.00 0.00 0.00 54 1010.2
20260509045727 35 235 3.2 9.7 0.00 0.00 0.00 54 1010.2
20260509045227 34 113 1.6 3.2 0.00 0.00 0.00 56 1010.5
20260509044730 33 115 3.2 4.8 0.00 0.00 0.00 56 1010.5
20260509044227 33 63 3.2 8.0 0.00 0.00 0.00 57 1010.5
20260509043727 33 211 4.8 9.7 0.00 0.00 0.00 57 1010.5
20260509043228 33 211 3.2 4.8 0.00 0.00 0.00 57 1010.2
20260509042729 33 122 1.6 3.2 0.00 0.00 0.00 58 1010.5
20260509042227 33 113 6.4 14.5 0.00 0.00 0.00 58 1010.2
20260509041729 32 10 1.6 3.2 0.00 0.00 0.00 62 1010.5
20260509041229 32 127 1.6 4.8 0.00 0.00 0.00 62 1010.5
20260509040727 33 112 1.6 8.0 0.00 0.00 0.00 60 1010.5
20260509040229 33 113 1.6 4.8 0.00 0.00 0.00 62 1010.5
20260509035727 33 52 8.0 11.3 0.00 0.00 0.00 60 1010.5
20260509035227 33 88 1.6 9.7 0.00 0.00 0.00 60 1010.5
20260509034727 33 112 1.6 4.8 0.00 0.00 0.00 60 1010.5
20260509034227 33 70 4.8 4.8 0.00 0.00 0.00 61 1010.5
20260509033727 33 119 3.2 8.0 0.00 0.00 0.00 61 1010.8
20260509033227 33 88 3.2 4.8 0.00 0.00 0.00 61 1010.8
20260509032727 32 29 1.6 3.2 0.00 0.00 0.00 61 1010.5
20260509032228 32 84 3.2 4.8 0.00 0.00 0.00 63 1010.8
20260509031728 32 63 4.8 8.0 0.00 0.00 0.00 65 1010.8
20260509031228 31 72 3.2 3.2 0.00 0.00 0.00 69 1010.8
20260509030727 31 94 1.6 4.8 0.00 0.00 0.00 71 1010.5
20260509030227 31 77 0.0 3.2 0.00 0.00 0.00 70 1010.8
20260509025727 31 108 3.2 4.8 0.00 0.00 0.00 70 1010.8
20260509025229 31 66 4.8 4.8 0.00 0.00 0.00 70 1010.8
20260509024727 31 121 6.4 8.0 0.00 0.00 0.00 70 1010.8
20260509024228 31 110 1.6 9.7 0.00 0.00 0.00 72 1010.8
20260509023727 30 108 0.0 3.2 0.00 0.00 0.00 74 1010.8
20260509023227 30 19 1.6 1.6 0.00 0.00 0.00 74 1010.8
20260509022728 31 122 0.0 3.2 0.00 0.00 0.00 73 1010.5
20260509022229 31 70 0.0 3.2 0.00 0.00 0.00 72 1010.5
20260509021728 31 105 1.6 4.8 0.00 0.00 0.00 73 1010.5
20260509021227 31 71 0.0 1.6 0.00 0.00 0.00 74 1010.5
20260509020727 30 88 0.0 3.2 0.00 0.00 0.00 75 1010.5
20260509020229 30 67 1.6 3.2 0.00 0.00 0.00 76 1010.2
20260509015727 30 312 0.0 4.8 0.00 0.00 0.00 79 1010.2
20260509015227 30 334 1.6 3.2 0.00 0.00 0.00 78 1010.2
20260509014727 29 68 1.6 4.8 0.00 0.00 0.00 80 1010.2
20260509014227 29 340 1.6 3.2 0.00 0.00 0.00 81 1010.2
20260509013727 29 0 3.2 4.8 0.00 0.00 0.00 80 1009.8
20260509013227 28 306 1.6 1.6 0.00 0.00 0.00 82 1009.8
20260509012728 28 323 3.2 3.2 0.00 0.00 0.00 84 1009.8
20260509012227 27 3 1.6 3.2 0.00 0.00 0.00 85 1009.8
20260509011728 27 354 1.6 4.8 0.00 0.00 0.00 86 1009.5
20260509011230 27 54 0.0 4.8 0.00 0.00 0.00 87 1009.5
20260509010729 27 324 0.0 3.2 0.00 0.00 0.00 88 1009.5
20260509010229 27 355 3.2 3.2 0.00 0.00 0.00 87 1009.1
20260509005727 27 321 1.6 3.2 0.00 0.00 0.00 86 1009.1
20260509005228 27 344 0.0 1.6 0.00 0.00 0.00 87 1008.8
20260509004728 27 354 0.0 1.6 0.00 0.00 0.00 88 1008.8
20260509004228 26 353 0.0 1.6 0.00 0.00 0.00 89 1008.8
20260509003727 26 21 1.6 1.6 0.00 0.00 0.00 89 1008.8
20260509003227 26 49 0.0 0.0 0.00 0.00 0.00 90 1008.5
20260509002728 26 49 0.0 0.0 0.00 0.00 0.00 90 1008.8
20260509002229 26 49 0.0 0.0 0.00 0.00 0.00 90 1008.8
20260509001727 26 49 0.0 0.0 0.00 0.00 0.00 90 1008.5
20260509001229 26 49 0.0 0.0 0.00 0.00 0.00 90 1008.5
20260509000727 26 49 0.0 0.0 0.00 0.00 0.00 89 1008.5
20260509000228 26 49 0.0 0.0 0.00 0.00 0.00 89 1008.5
20260508235727 26 49 0.0 0.0 0.00 0.00 0.00 89 1008.5
20260508235227 26 49 0.0 0.0 0.00 0.00 0.00 89 1008.5
20260508234727 26 49 0.0 0.0 0.00 0.00 0.00 89 1008.5
20260508234227 26 49 0.0 0.0 0.00 0.00 0.00 89 1008.1
20260508233727 26 49 0.0 0.0 0.00 0.00 0.00 89 1008.5
20260508233230 26 49 0.0 0.0 0.00 0.00 0.00 89 1008.5
20260508232728 26 49 0.0 0.0 0.00 0.00 0.00 89 1008.1
20260508232228 26 49 0.0 0.0 0.00 0.00 0.00 89 1008.1
20260508231728 26 49 0.0 0.0 0.00 0.00 0.00 89 1008.5
20260508231227 26 49 0.0 0.0 0.00 0.00 0.00 89 1008.1
20260508230728 26 48 0.0 0.0 0.00 0.00 0.00 88 1008.1
20260508230228 26 48 0.0 0.0 0.00 0.00 0.00 88 1008.1
20260508225728 26 48 0.0 0.0 0.00 0.00 0.00 88 1008.1
20260508225230 26 48 0.0 0.0 0.00 0.00 0.00 88 1008.1
20260508224727 26 49 0.0 1.6 0.00 0.00 0.00 88 1008.1
20260508224228 26 52 0.0 0.0 0.00 0.00 0.00 88 1008.1
20260508223729 26 52 0.0 0.0 0.00 0.00 0.00 88 1007.8
20260508223228 26 52 0.0 0.0 0.00 0.00 0.00 87 1007.8
20260508222727 26 52 0.0 0.0 0.00 0.00 0.00 88 1008.1
20260508222227 26 52 1.6 1.6 0.00 0.00 0.00 87 1008.5
20260508221727 26 39 0.0 1.6 0.00 0.00 0.00 87 1008.1
20260508221230 26 40 0.0 1.6 0.00 0.00 0.00 87 1008.1
20260508220727 26 40 0.0 1.6 0.00 0.00 0.00 87 1008.1
20260508220227 26 40 0.0 1.6 0.00 0.00 0.00 87 1008.1
20260508215730 26 342 0.0 0.0 0.00 0.00 0.00 87 1008.1
20260508215228 26 341 1.6 3.2 0.00 0.00 0.00 87 1008.1
20260508214727 26 36 0.0 1.6 0.00 0.00 0.00 87 1008.1
20260508214227 26 36 1.6 1.6 0.00 0.00 0.00 86 1008.1
20260508213727 26 343 0.0 0.0 0.00 0.00 0.00 86 1008.1
20260508213230 26 338 1.6 3.2 0.00 0.00 0.00 86 1008.1
20260508212733 27 327 3.2 4.8 0.00 0.00 0.00 86 1008.1
20260508212228 27 197 0.0 0.0 0.00 0.00 0.00 86 1007.8
20260508211729 27 197 0.0 1.6 0.00 0.00 0.00 86 1007.8
20260508211227 27 197 0.0 0.0 0.00 0.00 0.00 86 1007.8
20260508210728 27 197 0.0 0.0 0.00 0.00 0.00 85 1007.8
20260508210227 27 197 0.0 0.0 0.00 0.00 0.00 85 1007.8
20260508205728 27 197 0.0 0.0 0.00 0.00 0.00 85 1007.8
20260508205227 27 197 0.0 1.6 0.00 0.00 0.00 84 1008.1
20260508204727 27 197 0.0 0.0 0.00 0.00 0.00 84 1008.5
20260508204228 27 198 0.0 0.0 0.00 0.00 0.00 86 1008.1
20260508203727 27 197 0.0 0.0 0.00 0.00 0.00 86 1008.5
20260508203229 27 198 0.0 0.0 0.00 0.00 0.00 87 1008.5
20260508202729 27 198 0.0 0.0 0.00 0.00 0.00 87 1008.5
20260508202227 27 198 0.0 0.0 0.00 0.00 0.00 87 1008.5
20260508201727 27 198 0.0 0.0 0.00 0.00 0.00 87 1008.8
20260508201228 27 198 0.0 0.0 0.00 0.00 0.00 87 1008.8
20260508200727 27 198 0.0 0.0 0.00 0.00 0.00 87 1008.8
20260508200229 27 198 0.0 0.0 0.00 0.00 0.00 87 1008.8
20260508195727 27 198 0.0 0.0 0.00 0.00 0.00 87 1008.8
20260508195230 27 198 0.0 0.0 0.00 0.00 0.00 86 1008.8
20260508194727 27 198 0.0 0.0 0.00 0.00 0.00 86 1008.8
20260508194227 27 198 0.0 0.0 0.00 0.00 0.00 86 1008.8
20260508193727 27 198 0.0 0.0 0.00 0.00 0.00 86 1008.8
20260508193227 27 198 0.0 0.0 0.00 0.00 0.00 86 1008.8
20260508192728 27 198 0.0 0.0 0.00 0.00 0.00 86 1008.8
20260508192229 27 198 0.0 0.0 0.00 0.00 0.00 86 1009.1
20260508191728 27 198 0.0 0.0 0.00 0.00 0.00 86 1009.1
20260508191227 27 198 0.0 0.0 0.00 0.00 0.00 85 1009.5
20260508190727 27 198 0.0 0.0 0.00 0.00 0.00 85 1009.5
20260508190229 27 198 0.0 0.0 0.00 0.00 0.00 85 1009.5
20260508185727 27 198 0.0 0.0 0.00 0.00 0.00 85 1009.8
20260508185229 27 198 0.0 0.0 0.00 0.00 0.00 85 1009.8
20260508184727 27 198 0.0 0.0 0.00 0.00 0.00 85 1009.5
20260508184227 27 198 0.0 0.0 0.00 0.00 0.00 85 1009.5
20260508183728 27 198 0.0 0.0 0.00 0.00 0.00 85 1009.8
20260508183229 27 198 0.0 0.0 0.00 0.00 0.00 84 1009.8
20260508182728 27 198 0.0 1.6 0.00 0.00 0.00 85 1009.8
20260508182229 27 198 0.0 0.0 0.00 0.00 0.00 85 1009.8
20260508181727 27 198 0.0 0.0 0.00 0.00 0.00 84 1009.5
20260508181228 27 198 0.0 0.0 0.00 0.00 0.00 84 1009.8
20260508180734 27 198 0.0 0.0 0.00 0.00 0.00 84 1009.8
20260508180227 27 198 0.0 0.0 0.00 0.00 0.00 84 1009.8
20260508175727 27 198 0.0 0.0 0.00 0.00 0.00 84 1009.8
20260508175228 27 198 0.0 1.6 0.00 0.00 0.00 84 1009.8
20260508174727 27 194 0.0 1.6 0.00 0.00 0.00 84 1009.5
20260508174230 27 194 0.0 0.0 0.00 0.00 0.00 84 1009.8
20260508173728 27 194 0.0 0.0 0.00 0.00 0.00 84 1010.2
20260508173227 27 194 0.0 0.0 0.00 0.00 0.00 84 1009.8
20260508172728 27 194 0.0 0.0 0.00 0.00 0.00 83 1010.2
20260508172228 27 194 0.0 0.0 0.00 0.00 0.00 83 1009.8
20260508171729 28 194 1.6 1.6 0.00 0.00 0.00 83 1009.8
20260508171228 28 175 0.0 1.6 0.00 0.00 0.00 83 1009.8
20260508170730 28 175 0.0 0.0 0.00 0.00 0.00 83 1009.8
20260508170229 27 175 0.0 0.0 0.00 0.00 0.00 83 1009.5
20260508165727 27 175 1.6 1.6 0.00 0.00 0.00 83 1009.8
20260508165228 27 175 0.0 1.6 0.00 0.00 0.00 83 1009.5
20260508164728 27 175 0.0 1.6 0.00 0.00 0.00 83 1009.5
20260508164227 27 156 1.6 1.6 0.00 0.00 0.00 83 1009.5
20260508163727 27 157 0.0 1.6 0.00 0.00 0.00 83 1009.1
20260508163227 27 157 0.0 1.6 0.00 0.00 0.00 83 1009.5
20260508162727 28 148 0.0 1.6 0.00 0.00 0.00 82 1009.1
20260508162227 28 147 0.0 0.0 0.00 0.00 0.00 82 1008.8
20260508161727 28 148 1.6 3.2 0.00 0.00 0.00 82 1009.1
20260508161229 28 104 0.0 0.0 0.00 0.00 0.00 82 1009.1
20260508160730 28 101 0.0 0.0 0.00 0.00 0.00 81 1009.1
20260508160227 28 101 0.0 0.0 0.00 0.00 0.00 81 1009.1
20260508155727 28 101 0.0 0.0 0.00 0.00 0.00 81 1008.8
20260508155230 28 101 0.0 0.0 0.00 0.00 0.00 80 1009.1
20260508154727 28 101 0.0 0.0 0.00 0.00 0.00 81 1009.1
20260508154230 28 101 0.0 0.0 0.00 0.00 0.00 80 1009.1
20260508153727 28 101 0.0 0.0 0.00 0.00 0.00 80 1009.1
20260508153228 28 101 0.0 0.0 0.00 0.00 0.00 80 1009.1
20260508152727 28 101 0.0 0.0 0.00 0.00 0.00 80 1009.1
20260508152227 28 101 0.0 0.0 0.00 0.00 0.00 80 1009.1
20260508151731 28 101 0.0 0.0 0.00 0.00 0.00 79 1008.8
20260508151228 28 101 0.0 0.0 0.00 0.00 0.00 79 1009.5
20260508150728 28 101 0.0 0.0 0.00 0.00 0.00 79 1009.1
20260508150229 28 101 0.0 0.0 0.00 0.00 0.00 79 1008.8
20260508145729 28 102 0.0 0.0 0.00 0.00 0.00 79 1009.1
20260508145227 28 118 1.6 1.6 0.00 0.00 0.00 79 1009.1
20260508144728 28 116 1.6 1.6 0.00 0.00 0.00 78 1009.1
20260508144229 29 104 0.0 0.0 0.00 0.00 0.00 78 1009.1
20260508143730 29 104 0.0 1.6 0.00 0.00 0.00 78 1009.1
20260508143227 29 109 1.6 3.2 0.00 0.00 0.00 78 1009.1
20260508142727 29 113 0.0 1.6 0.00 0.00 0.00 78 1009.1
20260508142227 29 101 3.2 3.2 0.00 0.00 0.00 77 1008.8
20260508141730 29 88 1.6 4.8 0.00 0.00 0.00 77 1008.8
20260508141227 29 102 1.6 4.8 0.00 0.00 0.00 77 1008.8
20260508140728 29 109 1.6 3.2 0.00 0.00 0.00 77 1008.8
20260508140229 29 92 1.6 4.8 0.00 0.00 0.00 77 1008.8
20260508135730 29 118 0.0 0.0 0.00 0.00 0.00 77 1008.5
20260508135227 29 103 1.6 4.8 0.00 0.00 0.00 77 1008.5
20260508134730 29 123 0.0 3.2 0.00 0.00 0.00 76 1008.5
20260508134229 30 121 1.6 3.2 0.00 0.00 0.00 76 1008.5
20260508133729 30 73 4.8 4.8 0.00 0.00 0.00 75 1008.1
20260508133229 30 125 1.6 1.6 0.00 0.00 0.00 75 1008.5
20260508132729 30 103 0.0 8.0 0.00 0.00 0.00 75 1008.5
20260508132227 30 160 0.0 4.8 0.00 0.00 0.00 75 1008.1
20260508131730 30 190 1.6 8.0 0.00 0.00 0.00 75 1008.1
20260508131230 30 88 1.6 4.8 0.00 0.00 0.00 74 1008.1
20260508130728 30 105 3.2 8.0 0.00 0.00 0.00 74 1008.1
20260508130227 30 78 0.0 4.8 0.00 0.00 0.00 74 1008.1
20260508125727 30 85 3.2 8.0 0.00 0.00 0.00 74 1008.1
20260508125229 30 122 1.6 3.2 0.00 0.00 0.00 73 1007.8
20260508124729 30 100 3.2 4.8 0.00 0.00 0.00 73 1007.8
20260508124230 30 122 1.6 8.0 0.00 0.00 0.00 73 1007.8
20260508123728 30 87 3.2 11.3 0.00 0.00 0.00 72 1007.8
20260508123228 31 140 1.6 9.7 0.00 0.00 0.00 72 1007.8
20260508122729 31 135 3.2 9.7 0.00 0.00 0.00 71 1007.8
20260508122227 31 60 1.6 4.8 0.00 0.00 0.00 71 1007.8
20260508121727 31 146 3.2 11.3 0.00 0.00 0.00 70 1007.8
20260508121227 31 209 1.6 3.2 0.00 0.00 0.00 69 1007.5
20260508120729 31 253 1.6 8.0 0.00 0.00 0.00 69 1007.5
20260508120230 31 97 4.8 8.0 0.00 0.00 0.00 69 1007.5
20260508115731 31 106 1.6 8.0 0.00 0.00 0.00 69 1007.5
20260508115227 31 135 3.2 11.3 0.00 0.00 0.00 68 1007.5
20260508114727 31 54 3.2 11.3 0.00 0.00 0.00 68 1007.5
20260508114229 31 169 1.6 8.0 0.00 0.00 0.00 68 1007.1
20260508113727 31 165 1.6 12.9 0.00 0.00 0.00 68 1007.5
20260508113228 32 75 9.7 12.9 0.00 0.00 0.00 67 1007.5
20260508112728 32 156 1.6 11.3 0.00 0.00 0.00 67 1007.1
20260508112231 32 81 1.6 4.8 0.00 0.00 0.00 66 1007.1
20260508111727 32 199 1.6 9.7 0.00 0.00 0.00 66 1007.1
20260508111227 32 91 0.0 3.2 0.00 0.00 0.00 66 1007.1
20260508110729 32 114 1.6 8.0 0.00 0.00 0.00 66 1007.1
20260508110227 32 49 4.8 12.9 0.00 0.00 0.00 66 1007.1
20260508105730 32 175 6.4 12.9 0.00 0.00 0.00 65 1007.1
20260508105229 32 93 1.6 4.8 0.00 0.00 0.00 62 1007.1
20260508104728 32 114 4.8 11.3 0.00 0.00 0.00 62 1007.1
20260508104227 32 177 4.8 16.1 0.00 0.00 0.00 61 1007.1
20260508103728 33 185 4.8 11.3 0.00 0.00 0.00 60 1007.1
20260508103227 33 136 1.6 9.7 0.00 0.00 0.00 59 1007.1
20260508102727 33 131 6.4 9.7 0.00 0.00 0.00 59 1007.1
20260508102229 33 106 6.4 9.7 0.00 0.00 0.00 59 1007.1
20260508101727 33 69 1.6 12.9 0.00 0.00 0.00 61 1007.5
20260508101227 33 95 8.0 14.5 0.00 0.00 0.00 59 1007.5
20260508100729 33 115 3.2 9.7 0.00 0.00 0.00 59 1007.5
20260508100231 33 179 4.8 8.0 0.00 0.00 0.00 58 1007.5
20260508095730 33 175 3.2 12.9 0.00 0.00 0.00 58 1007.5
20260508095229 34 125 8.0 14.5 0.00 0.00 0.00 57 1007.5
20260508094728 34 114 1.6 12.9 0.00 0.00 0.00 56 1007.5
20260508094228 34 96 3.2 8.0 0.00 0.00 0.00 56 1007.5
20260508093730 35 111 12.9 16.1 0.00 0.00 0.00 56 1007.1
20260508093229 35 101 4.8 12.9 0.00 0.00 0.00 56 1007.5
20260508092730 35 123 11.3 17.7 0.00 0.00 0.00 56 1007.5
20260508092227 35 124 3.2 16.1 0.00 0.00 0.00 57 1007.5
20260508091728 35 150 4.8 16.1 0.00 0.00 0.00 54 1007.5
20260508091229 35 103 4.8 11.3 0.00 0.00 0.00 55 1007.1
20260508090727 35 98 4.8 12.9 0.00 0.00 0.00 54 1007.5
20260508090229 35 108 4.8 11.3 0.00 0.00 0.00 54 1007.1
20260508085727 35 211 11.3 17.7 0.00 0.00 0.00 55 1007.5
20260508085228 35 150 9.7 14.5 0.00 0.00 0.00 54 1007.5
20260508084728 36 130 4.8 14.5 0.00 0.00 0.00 53 1007.5
20260508084228 36 125 6.4 9.7 0.00 0.00 0.00 51 1007.5
20260508083728 36 196 6.4 20.9 0.00 0.00 0.00 51 1007.5
20260508083227 35 100 3.2 12.9 0.00 0.00 0.00 52 1007.5
20260508082729 36 126 8.0 14.5 0.00 0.00 0.00 50 1007.5
20260508082230 36 49 6.4 12.9 0.00 0.00 0.00 49 1007.8
20260508081729 35 101 8.0 11.3 0.00 0.00 0.00 51 1007.5
20260508081230 35 184 4.8 11.3 0.00 0.00 0.00 51 1008.1
20260508080727 35 95 6.4 14.5 0.00 0.00 0.00 54 1008.1
20260508080228 35 125 1.6 12.9 0.00 0.00 0.00 54 1008.1
20260508075728 35 113 3.2 14.5 0.00 0.00 0.00 58 1008.1
20260508075228 35 233 3.2 11.3 0.00 0.00 0.00 56 1008.5
20260508074729 35 94 3.2 16.1 0.00 0.00 0.00 56 1008.5
20260508074227 35 116 3.2 11.3 0.00 0.00 0.00 56 1008.5
20260508073727 35 62 8.0 12.9 0.00 0.00 0.00 55 1008.5
20260508073227 35 251 3.2 14.5 0.00 0.00 0.00 56 1008.5
20260508072728 36 139 8.0 11.3 0.00 0.00 0.00 53 1008.5
20260508072227 36 79 6.4 12.9 0.00 0.00 0.00 53 1008.5
20260508071727 36 77 4.8 9.7 0.00 0.00 0.00 53 1008.8
20260508071229 36 119 4.8 14.5 0.00 0.00 0.00 53 1008.8
20260508070727 35 109 8.0 14.5 0.00 0.00 0.00 53 1009.1
20260508070234 35 65 3.2 11.3 0.00 0.00 0.00 54 1009.5
20260508065727 36 85 3.2 8.0 0.00 0.00 0.00 53 1009.1
20260508065229 35 105 1.6 20.9 0.00 0.00 0.00 55 1009.1
20260508064728 35 103 4.8 14.5 0.00 0.00 0.00 56 1009.5
20260508064228 36 110 4.8 4.8 0.00 0.00 0.00 54 1009.5
20260508063728 35 72 6.4 9.7 0.00 0.00 0.00 57 1009.5
20260508063227 34 157 0.0 11.3 0.00 0.00 0.00 59 1009.5
20260508062727 35 119 4.8 14.5 0.00 0.00 0.00 57 1009.5
20260508062227 35 126 6.4 9.7 0.00 0.00 0.00 55 1009.1
20260508061727 35 119 4.8 9.7 0.00 0.00 0.00 55 1009.5
20260508061227 35 100 6.4 11.3 0.00 0.00 0.00 56 1009.5
20260508060727 35 162 3.2 11.3 0.00 0.00 0.00 58 1009.5
20260508060230 34 99 1.6 3.2 0.00 0.00 0.00 60 1009.5
20260508055727 35 141 1.6 11.3 0.00 0.00 0.00 60 1009.5
20260508055229 34 76 4.8 16.1 0.00 0.00 0.00 60 1009.5